Regional Weather Roundup
Issued by NWS

Home | Current Version | Previous Version | Graphics & Text | Print | Product List | Glossary On
Versions: 1 2 3 4 5 6 7 8 9 10 11 12 13 14 15 16 17 18 19 20 21 22 23 24 25 26 27 28 29 30 31 32 33 34 35 36 37 38 39 40 41 42 43 44 45 46 47 48 49 50
000
ASUS43 KMKX 280218
RWRWI

WISCONSIN REGIONAL WEATHER ROUNDUP
NATIONAL WEATHER SERVICE MILWAUKEE/SULLIVAN WI
900 PM CDT WED MAY 27 2015

NOTE: "FAIR" INDICATES FEW OR NO CLOUDS BELOW 12,000 FEET WITH NO
SIGNIFICANT WEATHER AND/OR OBSTRUCTIONS TO VISIBILITY.

WIZ001-002-006>008-014>016-023>028-280300-
NORTHWEST WISCONSIN

CITY           SKY/WX    TMP DP  RH WIND       PRES   REMARKS
SUPERIOR ARPT  CLEAR     66  56  70 CALM      29.95R
ASHLAND        CLEAR     63  56  78 S5        29.97R
HAYWARD        PTCLDY    62  57  83 CALM      30.00R
SIREN          PTCLDY    66  54  64 CALM      29.99R
CUMBERLAND     PTCLDY    66  55  68 SW3       30.00R
RICE LAKE      PTCLDY    68  59  72 CALM      30.01R
CHETEK         PTCLDY    67  56  66 NE6       30.01R
LADYSMITH      PTCLDY    61  58  90 NE8       30.03R
EAU CLAIRE     CLEAR     69  59  70 CALM      29.99R
MENOMONIE      CLEAR     72  58  62 S3        29.99R
NEW RICHMOND   PTCLDY    69  59  71 CALM      30.00R
OSCEOLA        PTCLDY    67  60  79 S3        30.01R
$$

WIZ003>005-009-010-017-018-280300-
NORTH CENTRAL WISCONSIN

CITY           SKY/WX    TMP DP  RH WIND       PRES   REMARKS
MANITOWISH WTR MOCLDY    62  56  79 CALM      30.01S
ARBOR VITAE    RAIN      62  58  87 SE6       30.03R
WOODRUFF       RAIN      62  58  87 SE6       30.03R
RHINELANDER    MOCLDY    57  56  96 CALM      30.05R
EAGLE RIVER    MOCLDY    60  54  78 SW3       30.02R
LAND O LAKES   MOCLDY    57  52  83 CALM      30.02R
PHILLIPS       PTCLDY    60  58  92 CALM      30.02R
TOMAHAWK       CLOUDY    59  53  80 CALM      30.04R
MEDFORD        CLOUDY    59  55  87 CALM      30.03F THUNDER
MERRILL        CLOUDY    58  57  94 N3        30.05R THUNDER
$$

WIZ029-030-035-036-043>047-280300-
CENTRAL WISCONSIN

CITY           SKY/WX    TMP DP  RH WIND       PRES   REMARKS
WAUSAU         TSTM      61  56  83 E9        30.03R
MOSINEE        PTCLDY    70  61  73 CALM      30.04R THUNDER
MARSHFIELD     MOCLDY    70  58  65 MISG      30.06R THUNDER
STEVENS POINT  CLOUDY    64  60  86 CALM      30.04R
WAUPACA        PTCLDY    68  61  77 CALM      30.03R
WAUTOMA        PTCLDY    68  62  80 CALM      30.04R
WISC RAPIDS    CLOUDY    66  61  84 CALM      30.04R
CAMP DOUGLAS   PTCLDY    64  64 100 E2        30.03R
$$

WIZ011>013-019>022-031-037>040-048>050-280300-
NORTHEAST WISCONSIN

CITY           SKY/WX    TMP DP  RH WIND       PRES   REMARKS
ANTIGO         LGT RAIN  56  54  94 CALM      30.06S
SHAWANO        MOCLDY    71  60  69 NW13      30.04R
OCONTO         CLEAR     60  55  82 CALM      30.00R
STURGEON BAY   CLEAR     61  54  77 S8        30.03R
GREEN BAY      CLEAR     70  61  73 SW5       30.01R
MANITOWOC      MOCLDY    55  51  86 SE7       30.05R
APPLETON       PTCLDY    66  55  68 W7        30.03R
CLINTONVILLE   PTCLDY    68  59  73 SW6       30.02R
OSHKOSH        CLEAR     67  58  72 S3        30.03R
$$

WIZ032>034-041-042-053>061-280300-
SOUTHWEST WISCONSIN

CITY           SKY/WX    TMP DP  RH WIND       PRES   REMARKS
LA CROSSE      CLEAR     72  60  66 S6        30.00R
SPARTA         PTCLDY    65  59  79 CALM      30.03R
VIROQUA        CLEAR     70  60  70 S6        30.05R
BOSCOBEL       CLEAR     67  63  87 CALM      30.04R
PRAIRIE DU CHI CLEAR     68  60  76 CALM      30.03R
PLATTEVILLE    CLEAR     71  60  67 S3        30.07R
$$

WIZ056-057-062-063-064-067-068-280300-
SOUTH CENTRAL WISCONSIN

CITY           SKY/WX    TMP DP  RH WIND       PRES   REMARKS
REEDSBURG      CLEAR     69  60  74 CALM      30.04R
BARABOO/DELLS  CLEAR     66  57  73 S5        30.05R
LONE ROCK      CLEAR     65  61  87 E3        30.05R
MINERAL POINT  CLEAR     72  55  56 SW5       30.07R
MADISON        PTCLDY    67  58  72 SW3       30.05R
MIDDLETON      CLEAR     69  57  65 CALM      30.06R
WATERTOWN      CLEAR    N/A N/A N/A CALM      30.06R
MONROE         CLEAR     68  59  73 S3        30.07S
JANESVILLE     CLEAR     70  55  60 S3        30.07R
$$

WIZ051-052-058>065-066-070>072-280300-
SOUTHEAST WISCONSIN

CITY           SKY/WX    TMP DP  RH WIND       PRES   REMARKS
MILWAUKEE      PTCLDY    63  54  72 S3        30.07R
WAUKESHA       CLEAR     66  54  63 S3        30.08R
MILWAUKEE/TIMM CLEAR     66  54  63 SW6       30.07R
RACINE         CLEAR     62  54  74 S3        30.09R
BURLINGTON     CLEAR     61  56  86 CALM      30.08R
KENOSHA        CLEAR     63  56  78 SE6       30.08R
FOND DU LAC    CLEAR     68  58  70 SW6       30.04R
SHEBOYGAN      CLEAR     63  57  81 S5        30.04R
WEST BEND      CLEAR     64  55  72 S3        30.06R
JUNEAU         CLEAR     64  59  84 SW5       30.07R
$$

LSZ147-162-280300-
LAKE SUPERIOR

STATION/POSITION TIME  TEMP    WIND        PRES    WAVE
                       AIR SEA DIR/SP/G            HT/PER
                 (UTC) (F)     (DEG/KT/KT) (MB)    (FT/S)
W MID LAKE BUOY  0150   44 37   80/ 10/ 12   N/A     1
DEVILS ISLAND    0200   59      50/  8/ 11   N/A
PORT WING        0100   75     160/  2/  3   N/A
SAXON HARBOR     0100   69     190/  5/  7   N/A
$$

LMZ867-665-643>646-280300-
LAKE MICHIGAN

STATION/POSITION TIME  TEMP    WIND        PRES    WAVE
                       AIR SEA DIR/SP/G            HT/PER
                 (UTC) (F)     (DEG/KT/KT) (MB)    (FT/S)
CHAMBERS ISLAND  0100   60     180/  7/ 13   N/A
N MID LAKE BUOY  0150   42 36  170/ 10/ 12   N/A     1/ 5
NORTHPORT PIER   0100   64     190/  2/  6   N/A
SISTER BAY       0103   64     280/ 11/ 14   N/A
ALGOMA LAKESHORE 0108          230/  6/  7   N/A
KEWAUNEE LAKESHO 0100          190/ 10/ 12   N/A
SHEBOYGAN LAKESH 0200   61     190/  8/  9   N/A
PORT WASHINGTON  0140   56     190/  6/  9   N/A
ATWATER BUOY     0100   54 49  200/  4/  6   N/A
MILWAUKEE LAKESH 0100   58     150/ 10/ 11   N/A
S MID LAKE BUOY  0150   45 38  230/  6/  6   N/A     1
KENOSHA   LAKESH 0200   59     170/  9/  9   N/A
$$

TC  - TEMPERATURE IN CELSIUS
VSB - VISIBILITY IN STATUTE MILES
WCI - WIND CHILL INDEX
HX  - HEAT INDEX



USA.gov is the U.S. government's official web portal to all federal, state and local government web resources and services.